| time (UTC) | temp C | wind direction | speed KPH | gust KPH | rain 1hr cm | rain 24hr cm | rain mn cm | humidity % | barometer mb |
| 20260905180054 | 32 | 105 | 14.5 | 24.1 | 0.00 | 0.00 | 0.00 | 44 | 1008.6 |
| 20260905174555 | 32 | 108 | 16.1 | 30.6 | 0.00 | 0.00 | 0.00 | 44 | 1008.6 |
| 20260905173051 | 32 | 120 | 17.7 | 29.0 | 0.00 | 0.00 | 0.00 | 43 | 1008.8 |
| 20260905171550 | 31 | 125 | 17.7 | 29.0 | 0.00 | 0.00 | 0.00 | 44 | 1008.7 |
| 20260905170047 | 31 | 113 | 12.9 | 27.4 | 0.00 | 0.00 | 0.00 | 45 | 1008.6 |
| 20260905164544 | 31 | 103 | 14.5 | 19.3 | 0.00 | 0.00 | 0.00 | 46 | 1008.6 |
| 20260905163041 | 30 | 122 | 9.7 | 16.1 | 0.00 | 0.00 | 0.00 | 49 | 1008.7 |
| 20260905161537 | 29 | 79 | 6.4 | 17.7 | 0.00 | 0.00 | 0.00 | 51 | 1008.7 |
| 20260905154531 | 28 | 77 | 9.7 | 14.5 | 0.00 | 0.00 | 0.00 | 55 | 1008.6 |
| 20260905153030 | 27 | 78 | 8.0 | 14.5 | 0.00 | 0.00 | 0.00 | 56 | 1008.3 |
| 20260905151534 | 27 | 74 | 6.4 | 11.3 | 0.00 | 0.00 | 0.00 | 58 | 1008.3 |
| 20260905150030 | 27 | 39 | 4.8 | 8.0 | 0.00 | 0.00 | 0.00 | 57 | 1008.3 |
| 20260905144527 | 28 | 77 | 3.2 | 6.4 | 0.00 | 0.00 | 0.00 | 55 | 1008.1 |
| 20260905143026 | 27 | 187 | 0.0 | 0.0 | 0.00 | 0.00 | 0.00 | 55 | 1008.1 |
| 20260905141524 | 26 | 202 | 0.0 | 0.0 | 0.00 | 0.00 | 0.00 | 58 | 1008.1 |
| 20260905140023 | 25 | 213 | 0.0 | 0.0 | 0.00 | 0.00 | 0.00 | 63 | 1008.1 |
| 20260905134521 | 23 | 223 | 0.0 | 0.0 | 0.00 | 0.00 | 0.00 | 70 | 1008.1 |
| 20260905133022 | 22 | 254 | 0.0 | 0.0 | 0.00 | 0.00 | 0.00 | 74 | 1007.9 |
| 20260905131520 | 21 | 256 | 0.0 | 0.0 | 0.00 | 0.00 | 0.00 | 80 | 1008.0 |
| 20260905130020 | 20 | 257 | 0.0 | 0.0 | 0.00 | 0.00 | 0.00 | 83 | 1007.9 |
| 20260905124518 | 19 | 236 | 0.0 | 0.0 | 0.00 | 0.00 | 0.00 | 84 | 1007.7 |
| 20260905123017 | 19 | 236 | 0.0 | 0.0 | 0.00 | 0.00 | 0.00 | 85 | 1007.4 |
| 20260905121515 | 19 | 207 | 0.0 | 0.0 | 0.00 | 0.00 | 0.00 | 81 | 1007.5 |
| 20260905120013 | 20 | 252 | 0.0 | 0.0 | 0.00 | 0.00 | 0.00 | 78 | 1007.3 |
| 20260905114513 | 21 | 257 | 0.0 | 0.0 | 0.00 | 0.00 | 0.00 | 77 | 1007.1 |
| 20260905113012 | 21 | 257 | 0.0 | 0.0 | 0.00 | 0.00 | 0.00 | 76 | 1007.1 |
| 20260905111512 | 21 | 265 | 0.0 | 0.0 | 0.00 | 0.00 | 0.00 | 77 | 1007.1 |
| 20260905110012 | 20 | 349 | 0.0 | 0.0 | 0.00 | 0.00 | 0.00 | 82 | 1007.2 |
| 20260905104507 | 21 | 261 | 0.0 | 0.0 | 0.00 | 0.00 | 0.00 | 77 | 1007.3 |
| 20260905103017 | 21 | 259 | 0.0 | 0.0 | 0.00 | 0.00 | 0.00 | 79 | 1007.2 |
| 20260905101506 | 21 | 70 | 0.0 | 0.0 | 0.00 | 0.00 | 0.00 | 80 | 1007.5 |
| 20260905100002 | 22 | 255 | 0.0 | 0.0 | 0.00 | 0.00 | 0.00 | 77 | 1007.7 |
| 20260905094600 | 22 | 230 | 1.6 | 4.8 | 0.00 | 0.00 | 0.00 | 76 | 1007.6 |
| 20260905093058 | 23 | 179 | 4.8 | 6.4 | 0.00 | 0.00 | 0.00 | 72 | 1007.8 |
| 20260905091620 | 23 | 220 | 0.0 | 0.0 | 0.00 | 0.00 | 0.00 | 71 | 1007.6 |
| 20260905090117 | 23 | 221 | 0.0 | 4.8 | 0.00 | 0.00 | 0.00 | 70 | 1007.4 |
| 20260905084606 | 23 | 245 | 4.8 | 8.0 | 0.00 | 0.00 | 0.00 | 70 | 1007.3 |
| 20260905083049 | 25 | 172 | 3.2 | 4.8 | 0.00 | 0.00 | 0.00 | 65 | 1007.6 |
| 20260905081546 | 25 | 151 | 0.0 | 4.8 | 0.00 | 0.00 | 0.00 | 62 | 1007.6 |
| 20260905080050 | 25 | 162 | 1.6 | 4.8 | 0.00 | 0.00 | 0.00 | 62 | 1007.3 |
| 20260905074542 | 25 | 171 | 1.6 | 6.4 | 0.00 | 0.00 | 0.00 | 61 | 1007.2 |
| 20260905073039 | 26 | 135 | 4.8 | 8.0 | 0.00 | 0.00 | 0.00 | 59 | 1007.2 |
| 20260905071538 | 26 | 166 | 8.0 | 12.9 | 0.00 | 0.00 | 0.00 | 60 | 1007.2 |
| 20260905070036 | 26 | 169 | 9.7 | 14.5 | 0.00 | 0.00 | 0.00 | 59 | 1007.1 |
| 20260905064535 | 26 | 214 | 9.7 | 14.5 | 0.00 | 0.00 | 0.00 | 59 | 1006.9 |
| 20260905063032 | 26 | 182 | 9.7 | 14.5 | 0.00 | 0.00 | 0.00 | 58 | 1007.1 |
| 20260905061528 | 27 | 171 | 9.7 | 19.3 | 0.00 | 0.00 | 0.00 | 56 | 1007.0 |
| 20260905060026 | 27 | 179 | 9.7 | 16.1 | 0.00 | 0.00 | 0.00 | 55 | 1006.7 |
| 20260905054523 | 27 | 141 | 11.3 | 19.3 | 0.00 | 0.00 | 0.00 | 54 | 1006.6 |
| 20260905053020 | 28 | 193 | 14.5 | 22.5 | 0.00 | 0.00 | 0.00 | 52 | 1006.5 |
| 20260905051517 | 28 | 167 | 14.5 | 25.7 | 0.00 | 0.00 | 0.00 | 52 | 1006.6 |
| 20260905050017 | 28 | 188 | 14.5 | 20.9 | 0.00 | 0.00 | 0.00 | 52 | 1006.8 |
| 20260905044516 | 28 | 167 | 12.9 | 20.9 | 0.00 | 0.00 | 0.00 | 51 | 1006.9 |
| 20260905043022 | 28 | 177 | 14.5 | 22.5 | 0.00 | 0.00 | 0.00 | 50 | 1006.9 |
| 20260905041514 | 28 | 168 | 17.7 | 22.5 | 0.00 | 0.00 | 0.00 | 50 | 1007.1 |
| 20260905040013 | 28 | 160 | 12.9 | 20.9 | 0.00 | 0.00 | 0.00 | 50 | 1007.2 |
| 20260905034516 | 28 | 150 | 11.3 | 17.7 | 0.00 | 0.00 | 0.00 | 50 | 1007.0 |
| 20260905033020 | 29 | 146 | 11.3 | 19.3 | 0.00 | 0.00 | 0.00 | 49 | 1006.9 |
| 20260905031512 | 30 | 141 | 9.7 | 20.9 | 0.00 | 0.00 | 0.00 | 48 | 1006.8 |
| 20260905030022 | 30 | 134 | 14.5 | 25.7 | 0.00 | 0.00 | 0.00 | 46 | 1006.6 |
| 20260905024512 | 30 | 129 | 17.7 | 25.7 | 0.00 | 0.00 | 0.00 | 45 | 1006.3 |
| 20260905023010 | 30 | 127 | 19.3 | 25.7 | 0.00 | 0.00 | 0.00 | 45 | 1006.2 |
| 20260905021509 | 30 | 107 | 14.5 | 24.1 | 0.00 | 0.00 | 0.00 | 46 | 1006.1 |
| 20260905020010 | 31 | 127 | 16.1 | 22.5 | 0.00 | 0.00 | 0.00 | 46 | 1005.7 |
| 20260905014510 | 31 | 119 | 14.5 | 24.1 | 0.00 | 0.00 | 0.00 | 46 | 1005.3 |
| 20260905013012 | 32 | 124 | 14.5 | 25.7 | 0.00 | 0.00 | 0.00 | 44 | 1005.2 |
| 20260905011508 | 32 | 104 | 14.5 | 27.4 | 0.00 | 0.00 | 0.00 | 43 | 1005.0 |
| 20260905010013 | 33 | 137 | 17.7 | 27.4 | 0.00 | 0.00 | 0.00 | 42 | 1004.9 |
| 20260905004514 | 33 | 124 | 16.1 | 20.9 | 0.00 | 0.00 | 0.00 | 40 | 1004.8 |
| 20260905003009 | 34 | 121 | 12.9 | 20.9 | 0.00 | 0.00 | 0.00 | 39 | 1004.9 |
| 20260905001526 | 35 | 117 | 9.7 | 24.1 | 0.00 | 0.00 | 0.00 | 38 | 1004.8 |
| 20260905000007 | 35 | 141 | 14.5 | 24.1 | 0.00 | 0.00 | 0.00 | 36 | 1004.8 |
| 20260904234514 | 35 | 131 | 16.1 | 22.5 | 0.00 | 0.00 | 0.00 | 37 | 1004.7 |
| 20260904233014 | 35 | 117 | 9.7 | 20.9 | 0.00 | 0.00 | 0.00 | 37 | 1004.6 |
| 20260904231505 | 35 | 159 | 12.9 | 19.3 | 0.00 | 0.00 | 0.00 | 36 | 1004.6 |
| 20260904230005 | 35 | 149 | 11.3 | 22.5 | 0.00 | 0.00 | 0.00 | 35 | 1004.6 |
| 20260904224506 | 36 | 141 | 17.7 | 30.6 | 0.00 | 0.00 | 0.00 | 35 | 1004.6 |
| 20260904223002 | 36 | 142 | 14.5 | 27.4 | 0.00 | 0.00 | 0.00 | 35 | 1004.6 |
| 20260904221603 | 36 | 123 | 22.5 | 32.2 | 0.00 | 0.00 | 0.00 | 35 | 1004.6 |
| 20260904220059 | 36 | 106 | 16.1 | 29.0 | 0.00 | 0.00 | 0.00 | 36 | 1004.8 |
| 20260904214602 | 36 | 117 | 20.9 | 30.6 | 0.00 | 0.00 | 0.00 | 35 | 1004.8 |
| 20260904213055 | 35 | 127 | 16.1 | 24.1 | 0.00 | 0.00 | 0.00 | 34 | 1005.0 |
| 20260904211555 | 35 | 148 | 16.1 | 24.1 | 0.00 | 0.00 | 0.00 | 35 | 1005.2 |
| 20260904204558 | 36 | 131 | 12.9 | 25.7 | 0.00 | 0.00 | 0.00 | 31 | 1005.2 |
| 20260904203100 | 35 | 155 | 20.9 | 30.6 | 0.00 | 0.00 | 0.00 | 35 | 1005.4 |
| 20260904201548 | 35 | 144 | 14.5 | 29.0 | 0.00 | 0.00 | 0.00 | 37 | 1005.5 |
| 20260904200051 | 34 | 160 | 17.7 | 27.4 | 0.00 | 0.00 | 0.00 | 36 | 1005.5 |
| 20260904194548 | 35 | 132 | 17.7 | 25.7 | 0.00 | 0.00 | 0.00 | 39 | 1005.5 |
| 20260904193103 | 35 | 153 | 19.3 | 33.8 | 0.00 | 0.00 | 0.00 | 34 | 1005.5 |
| 20260904191552 | 35 | 129 | 19.3 | 30.6 | 0.00 | 0.00 | 0.00 | 36 | 1005.6 |
| 20260904190040 | 34 | 131 | 19.3 | 27.4 | 0.00 | 0.00 | 0.00 | 40 | 1005.8 |
| 20260904184538 | 34 | 141 | 19.3 | 27.4 | 0.00 | 0.00 | 0.00 | 42 | 1005.8 |
| 20260904183033 | 33 | 103 | 16.1 | 25.7 | 0.00 | 0.00 | 0.00 | 43 | 1006.1 |
| 20260904181533 | 32 | 95 | 12.9 | 27.4 | 0.00 | 0.00 | 0.00 | 46 | 1006.4 |